Location: Chervonnoye
(48.6000°N, 34.4000°E)
Time: 07:59:09
(UTC+00:00)

NOAA 15 - Pass Details

Date: 30 November 2021
Orbit: 797 x 812 km, 98.7° (Epoch: 26 January)

Event Time Altitude Azimuth Distance (km) Brightness Sun altitude
Rises 15:47:49 0° 146° (SE) 3,320 7.6 -18.8°
Reaches altitude 10° 15:50:12 10° 141° (SE) 2,391 6.8 -19.2°
Maximum altitude 15:55:16 48° 68° (ENE) 1,047 4.7 -20.0°
Drops below altitude 10° 16:00:20 10° 355° (N) 2,398 7.0 -20.8°
Sets 16:02:44 0° 350° (N) 3,331 7.8 -21.2°
